Batesville, AR

3:57 PM CDT on May 26, 2018 (GMT -0500)
Batesville Regional

Weather History for KBVX - March, 2014

Change the Weather History Date:

Friday, March 7, 2014

  Actual Average Record
Temperature  
Mean Temperature 40 °F -  
Max Temperature 55 °F 60 °F 96 °F (1997)
Min Temperature 24 °F 34 °F 10 °F (1967)
Degree Days  
Heating Degree Days 26    
Moisture  
Dew Point 30 °F    
Average Humidity 70    
Maximum Humidity 93    
Minimum Humidity 33    
Precipitation  
Precipitation 0.45 in - - ()
Sea Level Pressure  
Sea Level Pressure 30.04 in    
Wind  
Wind Speed 3 mph (ESE)    
Max Wind Speed 10 mph    
Max Gust Speed -    
Visibility 8 miles    
Events      
Averages and records for this station are not official NWS values.
T = Trace of Precipitation, MM = Missing Value Source: NWS Daily Summary

Daily Weather History Graph

Daily Weather History Graph

Search for Another Location

Airport or City:

Astronomy

Mar. 07, 2014 Rise Set
Actual Time 6:28 AM CST 6:07 PM CST
Civil Twilight 6:02 AM CST 6:32 PM CST
Nautical Twilight 5:33 AM CST 7:02 PM CST
Astronomical Twilight 5:03 AM CST 7:32 PM CST
Moon 10:33 AM CST (3/7) 12:00 AM CST (3/7)
Length of Visible Light 12h 29m
Length of Day
11h 38m
Waxing Crescent, 42% of the Moon is Illuminated
Mar 7
Waxing Crescent
Mar 8
First Quarter
Mar 16
Full
Mar 23
Last Quarter
Mar 30
New

Hourly Weather History & Observations

Time (CST) Temp. Windchill Dew Point Humidity Pressure Visibility Wind Dir Wind Speed Gust Speed Precip Events Conditions
12:15 AM 28.4 °F - 24.8 °F 86% 30.10 in 7.0 mi Calm Calm - N/A   Clear
12:35 AM 28.4 °F 24.6 °F 24.8 °F 86% 30.11 in 6.0 mi West 3.5 mph - N/A   Clear
12:55 AM 28.4 °F 24.6 °F 24.8 °F 86% 30.11 in 7.0 mi WNW 3.5 mph - N/A   Clear
1:15 AM 28.4 °F - 24.8 °F 86% 30.11 in 7.0 mi Calm Calm - N/A   Clear
1:35 AM 28.4 °F - 24.8 °F 86% 30.11 in 7.0 mi Calm Calm - N/A   Clear
1:55 AM 28.4 °F - 24.8 °F 86% 30.10 in 8.0 mi Calm Calm - N/A   Clear
2:15 AM 28.4 °F - 24.8 °F 86% 30.10 in 6.0 mi Calm Calm - N/A   Clear
2:35 AM 26.6 °F - 24.8 °F 93% 30.09 in 8.0 mi Calm Calm - N/A   Clear
2:55 AM 26.6 °F - 23.0 °F 86% 30.08 in 6.0 mi Calm Calm - N/A   Clear
3:15 AM 26.6 °F - 23.0 °F 86% 30.08 in 7.0 mi Calm Calm - N/A   Clear
3:35 AM 26.6 °F - 24.8 °F 93% 30.08 in 7.0 mi Calm Calm - N/A   Clear
3:55 AM 26.6 °F - 23.0 °F 86% 30.08 in 7.0 mi Calm Calm - N/A   Clear
4:15 AM 24.8 °F - 23.0 °F 93% 30.07 in 5.0 mi Calm Calm - N/A   Clear
4:35 AM 26.6 °F - 23.0 °F 86% 30.07 in 7.0 mi Calm Calm - N/A   Clear
4:55 AM 24.8 °F - 21.2 °F 86% 30.07 in 4.0 mi Calm Calm - N/A   Clear
5:15 AM 24.8 °F - 23.0 °F 93% 30.06 in 5.0 mi Calm Calm - N/A   Clear
5:35 AM 24.8 °F - 21.2 °F 86% 30.07 in 4.0 mi Calm Calm - N/A   Clear
5:55 AM 24.8 °F - 21.2 °F 86% 30.07 in 3.0 mi Calm Calm - N/A   Clear
6:15 AM 24.8 °F - 21.2 °F 86% 30.07 in 5.0 mi Calm Calm - N/A   Clear
6:35 AM 24.8 °F - 23.0 °F 93% 30.07 in 2.0 mi Calm Calm - N/A   Clear
6:55 AM 24.8 °F - 21.2 °F 86% 30.07 in 2.5 mi Calm Calm - N/A   Clear
7:15 AM 26.6 °F - 24.8 °F 93% 30.07 in 2.5 mi Calm Calm - N/A   Clear
7:35 AM 28.4 °F - 24.8 °F 86% 30.08 in 4.0 mi Calm Calm - N/A   Clear
7:55 AM 28.4 °F - 24.8 °F 86% 30.09 in 5.0 mi Calm Calm - N/A   Clear
8:15 AM 33.8 °F - 26.6 °F 75% 30.09 in 7.0 mi Calm Calm - N/A   Clear
8:35 AM 35.6 °F - 26.6 °F 70% 30.09 in 8.0 mi Calm Calm - N/A   Clear
8:55 AM 35.6 °F - 28.4 °F 75% 30.09 in 8.0 mi Calm Calm - 0.01 in   Clear
9:15 AM 39.2 °F - 28.4 °F 65% 30.09 in 10.0 mi Calm Calm - 0.01 in   Clear
9:35 AM 44.6 °F - 32.0 °F 61% 30.10 in 10.0 mi Calm Calm - 0.02 in   Clear
9:55 AM 44.6 °F - 32.0 °F 61% 30.09 in 10.0 mi Calm Calm - 0.05 in   Clear
10:15 AM 48.2 °F - 30.2 °F 50% 30.09 in 10.0 mi Calm Calm - 0.03 in   Clear
10:35 AM 48.2 °F - 30.2 °F 50% 30.08 in 10.0 mi SE 6.9 mph - 0.06 in   Clear
10:55 AM 48.2 °F - 28.4 °F 46% 30.07 in 10.0 mi SE 4.6 mph - 0.10 in   Clear
11:15 AM 50.0 °F - 28.4 °F 43% 30.07 in 10.0 mi SSE 5.8 mph - 0.03 in   Clear
11:35 AM 51.8 °F - 30.2 °F 44% 30.06 in 10.0 mi ESE 6.9 mph - 0.07 in   Clear
11:55 AM 51.8 °F - 30.2 °F 44% 30.05 in 10.0 mi ESE 8.1 mph - 0.11 in   Clear
12:15 PM 51.8 °F - 30.2 °F 44% 30.05 in 10.0 mi ESE 4.6 mph - 0.03 in   Clear
12:35 PM 53.6 °F - 28.4 °F 38% 30.04 in 10.0 mi SE 4.6 mph - 0.06 in   Clear
12:55 PM 53.6 °F - 26.6 °F 35% 30.03 in 10.0 mi South 6.9 mph - 0.08 in   Clear
1:15 PM 53.6 °F - 24.8 °F 33% 30.02 in 10.0 mi SSE 8.1 mph - 0.03 in   Clear
1:35 PM 53.6 °F - 28.4 °F 38% 30.01 in 10.0 mi South 3.5 mph - 0.05 in   Clear
1:55 PM 55.4 °F - 33.8 °F 44% 30.00 in 10.0 mi ESE 9.2 mph - 0.07 in   Clear
2:15 PM 55.4 °F - 33.8 °F 44% 29.99 in 10.0 mi ESE 8.1 mph - 0.02 in   Clear
2:35 PM 53.6 °F - 37.4 °F 54% 29.99 in 10.0 mi East 9.2 mph - 0.03 in   Clear
2:55 PM 53.6 °F - 35.6 °F 51% 29.99 in 10.0 mi East 8.1 mph - 0.03 in   Clear
3:15 PM 51.8 °F - 35.6 °F 54% 29.99 in 10.0 mi East 10.4 mph - N/A   Clear
3:35 PM 51.8 °F - 35.6 °F 54% 29.99 in 10.0 mi East 6.9 mph - N/A   Clear
3:55 PM 51.8 °F - 37.4 °F 58% 30.00 in 10.0 mi SE 4.6 mph - N/A   Clear
4:15 PM 51.8 °F - 35.6 °F 54% 29.99 in 10.0 mi East 9.2 mph - N/A   Clear
4:35 PM 48.2 °F - 37.4 °F 66% 29.99 in 10.0 mi East 9.2 mph - N/A   Clear
4:55 PM 48.2 °F - 35.6 °F 62% 29.98 in 10.0 mi East 6.9 mph - N/A   Clear
5:15 PM 48.2 °F - 35.6 °F 62% 29.98 in 10.0 mi ESE 5.8 mph - N/A   Clear
5:35 PM 46.4 °F 42.4 °F 37.4 °F 71% 29.98 in 10.0 mi East 8.1 mph - N/A   Clear
5:55 PM 46.4 °F 43.5 °F 35.6 °F 66% 29.98 in 10.0 mi East 5.8 mph - N/A   Clear
6:15 PM 44.6 °F 39.7 °F 35.6 °F 71% 29.98 in 10.0 mi East 9.2 mph - N/A   Clear
6:35 PM 44.6 °F 40.7 °F 35.6 °F 71% 29.98 in 10.0 mi ESE 6.9 mph - N/A   Clear
6:55 PM 44.6 °F 42.2 °F 35.6 °F 71% 29.99 in 10.0 mi ESE 4.6 mph - N/A   Clear
7:15 PM 42.8 °F 38.6 °F 35.6 °F 76% 29.99 in 10.0 mi ESE 6.9 mph - N/A   Clear
7:35 PM 44.6 °F 42.2 °F 35.6 °F 71% 30.00 in 10.0 mi SE 4.6 mph - N/A   Clear
7:55 PM 42.8 °F 39.3 °F 35.6 °F 76% 30.00 in 10.0 mi SE 5.8 mph - N/A   Clear
8:15 PM 42.8 °F 41.1 °F 35.6 °F 76% 30.00 in 10.0 mi SE 3.5 mph - N/A   Clear
8:35 PM 42.8 °F 40.1 °F 35.6 °F 76% 30.00 in 10.0 mi SE 4.6 mph - N/A   Clear
8:55 PM 44.6 °F 41.4 °F 35.6 °F 71% 30.00 in 10.0 mi SE 5.8 mph - N/A   Clear
9:15 PM 42.8 °F 41.1 °F 35.6 °F 76% 30.00 in 10.0 mi SE 3.5 mph - N/A   Clear
9:35 PM 42.8 °F 40.1 °F 35.6 °F 76% 30.00 in 10.0 mi ESE 4.6 mph - N/A   Clear
9:55 PM 41.0 °F 37.1 °F 35.6 °F 81% 30.00 in 10.0 mi East 5.8 mph - N/A   Clear
10:15 PM 39.2 °F 35.0 °F 35.6 °F 87% 30.00 in 9.0 mi ESE 5.8 mph - N/A   Clear
10:35 PM 42.8 °F 38.6 °F 37.4 °F 81% 30.00 in 10.0 mi SE 6.9 mph - N/A   Scattered Clouds
10:55 PM 44.6 °F 40.7 °F 37.4 °F 76% 30.01 in 10.0 mi SSE 6.9 mph - N/A   Partly Cloudy
11:15 PM 46.4 °F 44.3 °F 37.4 °F 71% 30.02 in 10.0 mi South 4.6 mph - N/A   Clear
11:35 PM 44.6 °F 41.4 °F 37.4 °F 76% 30.02 in 10.0 mi South 5.8 mph - N/A   Clear
11:55 PM 46.4 °F 42.4 °F 37.4 °F 71% 30.01 in 10.0 mi SSE 8.1 mph - N/A   Clear